Location: Days
(41.3591°N, 106.7339°W)
Time: 19:25:41
(UTC+00:00)

First-Move - Pass Details

Date: 06 July 2022
Orbit: 572 x 658 km, 97.6° (Epoch: 07 August)

Event Time Altitude Azimuth Distance (km) Brightness Sun altitude
Rises 10:33:22 0° 21° (NNE) 2,972 ? -10.8°
Reaches altitude 10° 10:35:45 10° 31° (NNE) 2,065 ? -10.4°
Maximum altitude 10:39:53 35° 97° (E) 1,068 ? -9.9°
Drops below altitude 10° 10:44:01 10° 163° (SSE) 2,066 ? -9.3°
Sets 10:46:23 0° 172° (S) 2,972 ? -9.0°
